Regional Weather Roundup
Issued by NWS Burlington, VT

Home | Current Version | Previous Version | Text Only | Print | Product List | Glossary On
Versions: 1 2 3 4 5 6 7 8 9 10 11 12 13 14 15 16 17 18 19 20 21 22 23 24 25 26 27 28 29 30 31 32 33 34 35 36 37 38 39 40 41 42 43 44 45 46 47 48 49 50
000
ASUS41 KBTV 272110
RWRBTV
VERMONT REGIONAL WEATHER ROUNDUP
NATIONAL WEATHER SERVICE BURLINGTON VT
500 PM EDT WED MAY 27 2015

NOTE: "FAIR" INDICATES FEW OR NO CLOUDS BELOW 12,000 FEET WITH NO
SIGNIFICANT WEATHER AND/OR OBSTRUCTIONS TO VISIBILITY.

* THESE REPORTS ARE NOT UNDER NWS QUALITY CONTROL AND/OR DO NOT
  REPORT WEATHER SUCH AS PRECIPITATION AND FOG.

VTZ001>019-272200-
_____VERMONT_____


CITY           SKY/WX    TMP DP  RH WIND       PRES   REMARKS
BURLINGTON     CLOUDY    75  66  73 S14G22    29.96S
MONTPELIER     RAIN      69  66  90 SW9       30.04S FOG
MORRISVILLE    LGT RAIN  73  68  84 S5        29.98S
LYNDONVILLE*   LGT RAIN  73  64  74 W13G21    30.00R
MIDDLEBURY*    MOCLDY    73  70  91 S3        29.99F
RUTLAND*       CLOUDY    68  63  83 CALM      30.05R
SPRINGFIELD    MOCLDY    82  66  58 S8G22     29.99R
HIGHGATE*        N/A     78  69  73 S5        29.93S
NEWPORT*       LGT RAIN  69  66  90 SW5       29.99S
BENNINGTON     CLOUDY    79  66  64 VRB7      30.03R
SUTTON*          N/A     70 N/A N/A MISG        N/A

_____LAKE CHAMPLAIN_____


CITY           SKY/WX    TMP DP  RH WIND       PRES   REMARKS

$$

NYZ007-026>031-035-052-083-272200-
_____NORTHERN NEW YORK_____


CITY           SKY/WX    TMP DP  RH WIND       PRES   REMARKS
PLATTSBURGH    CLOUDY    73  66  78 SE8       29.94R
SARANAC LAKE   MOCLDY    75  61  61 SW10      29.99R
MASSENA        MOCLDY    81  61  50 SW15G26   29.91F
OGDENSBURG*    CLEAR     81  63  54 SW14G23   29.92S
POTSDAM*       CLEAR     81  66  61 W16G25    29.94S
WATERTOWN      MOCLDY    79  64  60 W9        29.96F
FT DRUM        MOCLDY    78  66  66 SW12G21   29.97S
ALBANY         TSTM      77  68  73 S17G25    30.01F
GLENS FALLS    MOCLDY    77  69  76 SE10      30.01R

$$
NHZ002-005-011-272200-
_____NEW HAMPSHIRE_____


CITY           SKY/WX    TMP DP  RH WIND       PRES   REMARKS
LEBANON        TSTM      68  66  93 VRB6G20   30.02R VSB 1
KEENE          PTCLDY    86  64  48 SW20G25   30.02S
MT WASHINGTON  CLOUDY    57  55  94 SW26        N/A
PLYMOUTH         N/A     86  67  52 S8        29.96S
WHITEFIELD     LGT RAIN  74  69  85 NW7       29.95S

$$

_____REGIONAL QUEBEC LOCATIONS_____


CITY           SKY/WX    TMP DP  RH WIND       PRES   REMARKS
MONTREAL       PTCLDY    79  63  57 SW21G33   29.89F
QUEBEC CITY    PTCLDY    77  70  78 SW16G23   29.85F
SHERBROOKE     MOCLDY    72  70  94 SW7       29.95S

_____REGIONAL ONTARIO LOCATIONS_____


CITY           SKY/WX    TMP DP  RH WIND       PRES   REMARKS
OTTAWA         PTCLDY    82  61  47 SW16G26   29.87F

______KEY______
VSB  - VISIBILITY IN MILES
WCI  - WIND CHILL INDEX
HX   - HEAT INDEX
$$
NNNN


USA.gov is the U.S. government's official web portal to all federal, state and local government web resources and services.